Voltar ao catálogo

STARLINK-36843

AtivoComunicaçõesVLEO
NORAD 67856·PAYLOAD·🇺🇸 United States

Lançado Feb 20, 2026 de Vandenberg Space Force Base

Loading…

Próximas Passagens (próximas 24 horas)

TLE

AtualizadoSource: CelesTrak SupGP

Época: Sep 15, 2026, 03:33 UTC

1 67856C 26034G   26258.14840278  .00001919  00000+0  61706-4 0  2585
2 67856  53.1587  42.9937 0001232  92.0875 145.9427 15.31695396    17

Acompanhe STARLINK-36843 em tempo real com AllMySat

Download on the App Store